sat.trackr.live / text

‹ back to catalog

STARLINK-36433

NORAD 67501 · 2026-012J

PAYLOAD ACTIVE UNKNOWN

§ Identity

Operator
Country
US
Launch date
2026-01-18
Launch site
AFETR
Launch vehicle
Mass (kg)
RCS (m²)

Purposes: comms

External: N2YO · Heavens-Above · Gunter

§ Orbital elements

Epoch: 2026-09-19T13:41:48.294240Z

Period
94.27 min
Inclination
43.0021°
Eccentricity
0.0001716
Mean motion
15.27591883 rev/d
Perigee alt
481.8 km
Apogee alt
484.2 km
Semi-major
6,861.2 km
B*
5.0614e-4
RAAN
299.4493°
Arg perigee
263.9876°
Mean anomaly
96.0780°
Rev number
3,741

§ Raw data

STARLINK-364331 67501U 26012J   26262.57069785  .00013697  00000+0  50614-3 0  99992 67501  43.0021 299.4493 0001716 263.9876  96.0780 15.27591883 37411

JSON: /api/v1/satellites/67501 · /tle

For live sub-satellite position, see the globe view (requires WebGL).

§ Visibility from observer

Set your observer location to see the next 7 days of passes ≥ 10°. The values pass through the URL so the page stays shareable.

No JS? Fill the form by hand. The geolocation button needs JavaScript.